Theta_e
321 322 325 326 326 327 328 329 330 330 330 331 332 332 332 332 332 332 331 330 331 331 331 331 331 332 332 332 332 332 331 330 330 331 332 332 332 332 332 332 332 332 331 331 331 330 330 330 330 330 330 330 329 328 327 327 327 325 325 325 323 323 323 322 321 320 319 321 321 321 321 317 313 314 312 306 305 307 306 304 303 301 302 302 304
318 320 323 325 327 328 328 328 329 329 329 330 331 331 331 331 332 331 330 330 331 331 331 331 332 332 331 332 331 331 330 329 329 330 331 332 332 332 332 332 332 332 331 331 331 331 330 330 330 330 330 330 330 329 328 328 327 326 325 324 323 323 323 322 322 319 317 320 321 320 320 317 313 312 309 305 306 307 306 305 303 302 302 303 304
316 320 322 324 326 327 328 328 327 327 327 328 330 331 331 331 331 330 330 330 331 331 331 331 332 331 331 331 331 330 330 329 329 330 331 331 332 332 332 332 332 332 332 331 331 330 330 330 330 330 330 329 330 329 328 328 328 327 326 325 324 323 323 322 321 320 317 318 319 320 320 318 314 312 310 306 306 307 307 306 304 303 303 303 304
316 320 322 323 325 326 327 328 328 327 327 327 329 331 331 331 331 330 329 330 331 330 331 331 331 331 330 330 330 329 329 329 328 329 330 331 331 331 331 331 332 332 331 331 331 330 330 331 330 330 329 329 329 329 328 328 327 327 326 326 324 323 323 322 321 321 319 318 318 318 319 318 316 313 311 308 306 306 307 306 304 303 303 303 304
316 319 320 322 324 324 326 327 327 327 327 327 327 330 331 330 330 330 329 329 329 329 330 330 330 330 330 330 329 329 329 329 328 328 329 330 329 329 329 330 331 331 331 331 331 329 330 331 330 329 329 328 328 328 328 328 327 326 326 326 324 323 323 322 321 321 320 319 318 317 317 317 316 313 312 310 307 306 307 307 306 305 303 303 303
315 316 316 319 321 323 324 325 325 326 327 327 327 328 330 330 329 329 329 329 327 327 329 330 329 329 329 329 328 328 329 328 328 328 328 328 327 328 329 330 330 330 330 330 330 329 329 330 330 329 328 328 328 327 327 327 327 327 326 326 325 324 323 323 322 321 320 319 318 317 316 316 315 313 312 311 309 307 306 307 307 306 305 304 304
314 315 317 318 320 322 323 324 325 325 326 327 327 328 329 329 329 329 329 329 327 326 328 329 329 329 328 329 328 328 329 328 328 327 327 327 327 327 328 329 329 329 330 330 330 329 329 330 330 329 328 327 328 327 326 325 326 326 327 326 326 325 324 323 322 321 319 317 317 317 316 314 313 312 312 311 309 308 306 306 307 307 306 305 305
310 313 315 317 319 321 323 324 324 325 325 326 326 327 327 328 328 328 328 328 328 327 328 328 329 328 328 329 329 328 328 328 327 327 326 326 327 327 327 328 329 329 329 329 329 329 329 330 330 329 328 327 326 326 325 325 325 325 325 325 325 324 324 324 323 321 319 316 315 315 314 312 311 310 310 310 309 308 307 306 307 307 307 306 306
308 309 311 314 317 319 322 324 324 325 325 325 326 326 326 327 328 328 328 328 328 328 328 328 328 328 329 328 328 327 327 327 327 326 325 326 326 326 326 326 327 327 327 327 327 328 328 329 329 327 327 327 325 325 324 322 322 323 323 323 322 322 322 322 320 318 317 315 314 313 311 310 309 309 309 309 309 309 308 307 307 308 307 307 308
307 308 308 311 314 317 320 323 324 324 325 325 325 325 326 327 327 327 327 327 327 328 328 327 327 328 329 328 327 327 327 327 327 325 324 324 324 324 324 324 325 326 325 326 326 327 328 328 327 326 326 326 325 324 322 319 319 320 320 320 320 319 319 318 316 315 315 313 312 312 311 310 309 309 309 309 309 309 308 308 308 308 308 309 310
307 307 307 309 312 315 318 320 322 324 325 325 325 325 326 326 326 326 326 326 326 327 326 326 326 327 328 327 326 326 326 326 326 324 323 322 322 323 323 323 323 324 324 325 326 327 327 327 326 325 325 325 324 322 319 317 318 318 318 318 317 316 316 315 314 313 313 312 312 311 312 311 310 310 310 310 310 311 312 313 313 313 312 312 313
307 307 307 308 309 312 315 317 319 322 324 324 325 325 325 325 325 325 325 325 326 326 325 325 325 326 327 326 325 325 325 324 325 323 321 320 321 322 322 322 323 323 324 325 326 327 327 325 324 323 323 322 321 319 317 317 318 317 318 317 317 317 316 316 315 314 313 314 314 314 315 315 315 315 315 315 316 316 317 318 317 317 317 316 316
306 306 307 307 307 309 312 315 316 319 322 324 324 324 325 325 324 324 324 324 325 325 324 324 324 324 324 324 324 324 323 323 323 321 319 319 319 319 320 321 322 323 324 325 325 325 324 323 321 320 319 318 318 318 318 318 318 318 318 318 318 318 317 317 317 317 316 316 317 316 317 317 317 317 318 318 318 318 318 318 318 318 318 318 318
305 306 306 306 306 307 309 312 314 316 319 322 324 324 324 323 323 323 323 323 324 324 323 323 321 321 321 322 322 323 322 321 321 319 318 318 318 318 319 320 322 323 324 323 322 321 320 319 319 318 317 318 318 318 318 318 318 318 318 318 318 318 318 318 318 318 318 317 317 317 317 317 318 318 318 317 317 317 317 317 317 317 317 317 317
304 305 305 306 306 306 307 309 311 314 316 319 320 321 321 320 320 321 321 321 321 320 320 320 319 318 319 320 321 322 321 320 320 319 318 318 317 318 319 320 322 322 322 321 319 318 318 318 318 317 317 318 318 318 318 318 318 318 318 318 318 319 319 319 318 318 318 318 318 318 318 317 317 317 317 315 314 313 313 313 315 316 317 317 316
304 304 304 305 305 306 306 306 308 310 312 313 314 314 314 314 316 317 317 318 316 313 314 315 316 316 317 318 319 320 320 320 319 319 318 317 317 318 319 321 321 321 319 318 318 317 317 318 318 318 317 317 317 318 318 318 318 319 319 319 318 318 317 317 317 317 318 317 317 316 315 314 313 312 311 310 309 307 306 308 311 313 314 314 314
302 303 303 304 305 305 305 305 306 307 308 308 308 307 307 307 309 311 312 312 310 308 308 311 313 315 316 316 317 318 318 319 319 318 318 318 318 319 320 320 320 319 318 317 316 316 317 317 317 317 317 317 318 318 318 319 319 319 319 318 317 317 316 315 316 315 315 314 313 311 310 309 307 307 307 306 306 306 305 307 309 309 310 311 311
300 301 302 303 305 305 305 304 304 305 305 305 304 304 304 304 304 306 308 307 306 305 306 307 309 312 314 315 315 317 317 317 318 318 318 318 318 319 320 319 318 317 317 316 316 316 317 317 317 318 318 319 319 319 319 320 319 319 319 317 315 313 311 310 310 310 309 307 306 306 306 306 306 305 305 305 305 305 304 305 306 307 309 310 309
299 300 301 303 305 306 304 304 304 303 303 304 303 302 301 301 302 303 305 305 305 305 306 306 305 307 311 313 314 315 316 316 317 318 318 318 319 319 320 319 317 316 316 315 315 315 316 316 317 318 318 317 317 316 316 316 317 316 315 315 312 309 307 306 305 305 305 304 305 305 305 305 305 304 304 303 303 303 302 302 303 305 308 309 309
299 301 303 304 305 306 305 304 303 303 302 302 302 302 300 300 302 303 304 304 305 305 306 307 305 304 307 311 312 313 314 315 316 317 317 318 318 318 319 318 317 315 315 315 315 314 315 315 315 316 315 315 315 314 313 314 314 313 312 312 310 307 304 302 302 303 303 304 305 305 305 305 304 304 303 303 302 302 302 301 301 302 306 308 308
299 302 303 304 304 305 305 305 304 303 302 302 302 303 302 301 302 303 303 304 305 304 305 307 305 303 304 307 308 309 310 312 313 315 316 316 317 317 317 317 316 315 315 314 314 314 315 315 315 315 315 314 314 313 312 311 309 307 306 306 305 303 301 300 300 301 302 304 305 305 305 304 304 303 303 303 302 302 302 301 301 303 305 306 306
298 300 302 303 303 303 304 304 304 303 303 302 302 302 303 303 302 303 304 304 304 303 303 305 304 303 303 304 304 305 307 309 311 312 313 315 315 316 316 315 314 314 313 313 313 313 314 314 314 314 314 314 313 313 313 311 310 308 305 303 301 300 299 300 301 302 303 304 305 304 304 304 303 303 302 302 302 302 302 302 303 304 305 305 304
297 299 300 301 302 303 303 304 304 303 303 302 302 301 302 302 303 304 303 303 302 302 302 303 303 302 302 302 302 303 304 305 307 309 310 311 312 313 313 312 312 312 312 312 312 313 313 313 313 313 312 312 313 313 312 311 310 308 304 301 300 299 299 301 303 304 305 305 305 304 303 303 302 302 302 301 301 302 302 303 304 304 303 303 303
297 297 298 298 299 301 302 303 304 303 303 303 302 302 301 301 302 302 303 302 302 301 301 301 301 300 299 299 300 300 301 302 304 305 306 308 309 310 310 310 310 311 311 311 311 310 310 310 310 309 307 306 307 306 305 305 304 303 301 301 300 301 302 304 305 305 305 304 303 303 302 302 301 301 301 300 300 301 303 303 303 303 302 302 301
298 297 297 297 298 299 301 303 303 303 303 302 302 302 302 301 301 301 302 303 302 301 301 301 301 300 299 298 298 298 299 299 300 300 301 303 305 306 306 306 307 308 308 307 306 304 304 304 304 303 302 302 302 302 302 303 303 303 303 303 303 304 305 305 305 304 303 302 301 301 300 300 300 300 299 299 300 301 302 303 302 302 301 300 300
299 298 297 296 296 298 299 301 302 303 303 302 301 301 301 301 300 301 301 302 302 301 301 301 301 300 299 298 298 298 298 298 298 298 298 299 300 300 301 301 301 302 302 302 301 300 300 300 301 301 302 302 303 303 303 304 304 304 304 304 304 304 304 303 303 302 301 300 299 299 299 299 299 299 299 300 300 301 301 301 301 300 299 299 300
300 300 299 297 296 296 297 297 299 300 302 302 302 301 301 300 300 300 300 301 301 302 301 301 300 300 299 299 299 299 298 298 298 298 298 297 298 298 298 298 298 298 299 299 299 300 300 301 302 302 303 303 303 304 304 304 304 303 303 303 302 302 301 301 300 300 299 298 298 298 298 298 298 298 299 299 299 299 299 299 300 299 299 299 299
300 300 300 299 298 297 296 296 296 297 298 300 301 301 301 301 300 300 300 300 301 302 302 301 301 300 300 300 299 299 298 297 297 297 297 297 297 297 297 297 298 298 298 299 300 301 301 302 302 302 303 303 303 303 302 302 302 301 300 300 299 299 299 299 298 298 298 297 297 297 297 297 297 297 298 298 298 298 297 298 298 297 298 298 297
299 300 300 300 299 298 297 296 296 295 295 296 297 298 299 300 300 300 299 299 300 301 300 300 299 299 299 299 298 298 297 297 297 297 297 297 297 297 298 298 299 299 299 300 301 301 301 302 302 302 302 302 301 301 300 300 299 299 298 298 298 297 297 297 297 297 297 297 297 297 297 297 297 297 297 297 296 296 296 297 296 296 296 296 296
298 299 299 299 300 299 298 297 296 296 296 295 295 296 296 298 298 298 298 298 298 298 298 298 298 298 298 297 297 297 298 298 297 297 297 297 297 298 299 299 299 299 300 300 301 301 301 301 301 301 300 300 299 299 298 298 298 297 297 296 296 296 296 296 296 296 296 296 296 296 296 296 296 296 296 295 295 295 295 295 295 295 295 295 295
297 298 298 299 299 299 299 298 297 297 296 296 296 296 296 296 296 296 296 297 297 297 297 297 297 297 297 297 297 297 298 298 298 298 298 298 298 299 299 299 299 299 300 300 300 300 300 300 299 299 299 298 297 297 297 297 297 296 296 296 296 296 296 296 295 295 296 296 295 295 295 295 295 294 294 294 294 294 294 294 294 294 294 294 294
297 297 297 298 299 299 299 299 298 298 297 296 296 296 296 296 296 296 296 297 297 297 297 297 297 298 297 297 297 298 298 298 298 298 298 298 298 298 298 299 299 299 299 300 300 299 299 298 298 297 297 297 296 296 296 295 295 295 295 295 295 295 295 295 295 295 295 294 294 294 293 293 293 293 293 293 292 292 292 293 293 293 293 294 294
297 297 297 297 298 298 299 299 299 298 298 297 297 297 296 296 296 296 296 297 297 297 297 297 297 297 297 297 297 297 297 297 298 298 298 298 298 298 298 298 298 298 299 300 299 298 297 297 296 296 296 295 295 295 295 295 295 295 295 295 295 294 294 294 294 294 293 293 293 292 292 292 292 292 292 292 292 292 292 293 293 293 293 294 294
297 297 297 297 297 297 298 299 299 299 298 297 297 297 297 296 296 296 296 296 296 296 296 296 296 297 297 297 297 297 296 296 297 297 297 297 297 297 298 298 298 298 298 299 298 297 296 296 295 295 295 294 294 294 294 294 295 295 294 294 294 293 293 293 293 292 292 292 292 292 292 292 292 292 292 292 292 292 292 292 293 293 293 293 293
296 297 297 297 297 297 298 298 299 299 298 298 297 297 297 297 297 296 296 296 295 295 295 295 295 295 295 295 295 295 295 296 296 296 296 296 296 296 296 297 297 297 297 297 297 296 296 295 294 294 294 294 294 294 294 294 294 294 294 294 293 293 293 293 292 292 291 291 291 291 292 292 292 292 292 292 292 292 292 292 292 293 293 293 293
297 297 297 297 297 297 297 298 298 298 298 298 298 297 297 297 297 297 296 296 295 295 295 295 295 295 294 294 294 294 294 294 294 294 294 295 294 294 295 295 296 296 296 296 295 295 294 294 294 293 294 294 294 294 294 294 294 294 293 293 293 292 293 292 292 291 291 291 291 291 291 292 292 292 292 292 292 292 292 292 292 292 292 292 292
297 297 297 297 297 297 297 297 297 298 298 298 298 297 297 297 297 296 296 296 296 295 295 295 295 294 294 294 294 293 293 293 293 293 293 294 294 294 294 294 294 294 294 294 294 294 294 293 293 293 293 294 294 294 294 293 293 293 292 292 292 292 292 292 292 291 290 290 291 291 291 291 291 291 292 292 292 291 291 291 291 291 291 291 291
297 297 297 297 297 297 297 297 297 297 298 298 297 297 297 297 296 296 296 296 296 295 295 295 295 294 294 294 293 293 293 293 293 293 293 293 293 293 293 293 293 293 293 293 293 293 293 293 293 293 293 293 293 293 293 293 292 292 292 292 292 291 291 291 291 291 290 290 291 291 291 291 291 291 292 292 291 291 291 291 291 291 291 290 290
298 298 298 298 297 297 297 297 297 297 297 297 297 297 297 297 296 296 296 296 295 295 295 295 295 294 294 294 293 293 293 292 292 292 292 292 292 292 293 293 293 293 293 293 293 293 293 293 293 293 293 293 293 293 292 292 292 292 292 291 291 290 290 291 291 290 290 291 290 290 291 291 291 291 291 291 291 291 291 291 291 290 290 290 289
298 298 298 298 298 297 296 296 297 296 296 297 297 297 297 297 297 296 296 296 295 295 295 295 295 294 294 293 293 293 293 292 292 291 291 291 291 291 292 292 292 293 292 292 292 292 292 292 292 292 292 292 292 292 292 292 291 291 291 291 290 290 290 290 290 290 290 291 290 290 291 290 290 291 291 291 291 290 290 290 290 290 290 290 290
298 298 298 298 298 297 296 296 296 296 296 296 296 296 296 296 296 296 296 296 296 295 295 295 295 294 293 293 293 293 293 292 292 291 291 291 290 291 291 292 292 292 292 292 292 292 292 292 292 292 292 291 291 291 291 291 291 290 290 290 290 290 290 290 290 290 290 290 290 290 290 290 290 290 290 290 290 290 290 290 290 290 290 290 289
297 298 298 298 298 297 296 296 296 296 296 296 296 296 296 296 296 296 296 296 295 295 295 295 294 294 293 293 293 293 293 292 292 291 291 290 290 291 291 291 292 292 292 292 292 292 292 292 291 291 291 291 291 291 290 290 290 290 290 290 290 290 290 290 290 290 290 290 290 290 290 290 290 290 290 290 290 290 290 290 290 290 290 289 289
298 298 298 298 298 297 296 296 296 296 296 296 296 295 295 296 296 296 296 295 295 295 295 294 294 293 293 293 293 293 292 292 292 291 291 291 290 290 291 291 291 292 292 292 292 292 292 292 292 291 291 291 291 290 290 290 290 290 290 290 290 290 290 290 290 290 290 290 290 290 290 289 289 289 289 289 289 289 289 289 289 289 289 289 289
297 298 297 297 297 297 296 296 296 296 296 296 295 295 295 295 296 296 296 295 295 295 295 294 294 294 293 293 293 292 292 292 291 291 291 291 291 291 291 291 291 291 292 292 291 291 291 292 291 291 291 291 291 291 290 290 290 290 289 290 290 290 290 290 290 290 290 289 289 289 289 289 289 289 289 289 289 289 289 289 289 289 289 289 289
296 297 297 297 297 297 297 296 296 296 296 296 295 295 294 295 296 296 295 295 295 295 295 294 294 294 293 293 293 292 292 292 291 291 291 291 291 291 291 291 291 291 291 291 291 291 291 291 291 291 291 291 291 291 291 290 290 289 289 289 289 289 289 290 289 289 289 289 289 289 288 288 288 288 288 288 288 288 288 288 288 288 288 288 288
296 297 297 297 297 297 297 296 296 296 296 296 295 294 294 295 295 295 295 295 295 295 295 295 294 294 294 293 293 292 292 292 291 290 290 290 291 291 291 290 291 291 291 291 291 291 291 291 291 291 291 291 291 291 291 290 289 289 289 289 289 289 289 289 289 289 289 289 288 289 288 288 288 287 287 287 287 287 287 287 287 287 288 288 288
297 297 297 297 297 297 296 296 296 296 296 296 295 295 294 295 295 296 296 295 295 295 295 294 294 294 294 294 294 293 292 292 292 291 290 290 290 291 291 291 291 291 291 291 291 291 291 291 291 291 291 291 291 291 290 290 289 288 288 289 289 289 289 288 288 288 288 288 288 288 288 288 287 287 285 284 285 285 286 286 286 286 286 287 288
297 297 297 296 295 295 295 295 295 296 296 296 295 295 295 295 295 296 296 295 295 295 295 294 294 294 294 294 294 294 293 293 292 291 291 290 289 289 290 290 291 291 291 291 291 291 291 291 291 291 291 291 290 289 289 288 288 288 288 288 288 288 288 288 288 288 288 288 288 287 287 287 286 285 283 282 283 284 285 284 284 284 285 286 287
296 296 295 294 293 293 294 294 294 294 295 295 295 295 295 295 295 295 295 295 295 295 295 295 294 294 294 294 294 294 294 293 293 292 291 290 290 289 289 288 289 290 291 291 291 291 291 291 291 291 290 290 289 288 287 287 287 287 287 288 288 287 287 287 287 287 287 287 287 286 286 286 286 284 282 281 282 283 283 283 283 284 285 285 286
295 295 294 293 293 293 294 294 294 294 294 294 294 294 294 294 294 295 295 295 295 295 295 295 295 294 294 294 294 294 294 294 293 293 292 291 290 290 289 288 288 288 289 290 290 290 290 290 289 289 289 288 287 287 287 287 287 287 287 287 287 287 287 287 287 286 286 286 286 286 286 285 285 283 281 281 282 282 282 282 283 284 285 285 286
294 293 294 294 293 293 293 294 294 294 295 295 294 294 294 294 294 294 294 295 295 295 295 295 295 294 294 294 294 294 294 294 293 293 292 292 291 290 290 289 288 287 287 288 288 288 287 287 287 287 287 287 287 287 287 287 287 287 287 287 287 286 286 286 286 286 286 286 286 285 285 285 284 282 281 281 281 282 281 282 284 285 285 285 286
Wind_Speed
21 20 18 14 14 15 16 18 17 15 16 18 19 18 17 18 19 20 20 21 22 22 22 22 21 20 20 20 19 19 18 18 18 18 18 19 19 19 18 18 17 16 15 14 13 12 12 13 13 13 12 11 11 12 14 15 16 17 19 20 17 13 10 10 8 7 12 15 12 10 11 9 9 11 12 12 12 12 11 10 10 10 9 9 9
22 21 19 15 12 15 17 17 17 17 17 17 17 17 18 19 20 20 21 22 23 23 24 24 23 22 21 21 20 19 19 19 19 19 19 20 20 19 18 17 17 16 15 14 13 12 12 13 13 13 12 11 11 11 13 15 16 18 20 20 19 16 13 12 11 10 12 15 14 12 12 12 10 11 12 13 12 12 12 12 12 11 11 11 11
23 21 18 13 12 14 13 13 14 14 14 16 18 19 19 20 20 21 22 23 24 24 24 25 25 24 22 22 21 20 20 20 19 19 19 20 20 19 18 17 17 17 16 14 13 13 13 14 13 13 13 12 12 12 13 15 16 17 19 21 20 19 16 14 13 12 12 15 16 14 14 14 12 11 11 13 13 14 14 13 13 12 12 12 12
24 21 17 14 13 13 11 12 13 12 15 18 21 20 19 20 21 21 22 24 25 25 25 26 26 25 24 24 22 20 20 20 19 19 19 19 19 18 17 17 17 17 15 14 13 14 14 14 13 13 13 13 13 13 14 15 16 16 18 19 21 21 19 17 15 13 12 13 14 15 14 14 13 12 12 13 15 15 15 15 15 14 13 13 14
24 20 18 16 13 12 13 13 11 12 16 19 20 20 20 21 22 23 23 24 26 26 26 27 27 27 26 25 23 21 21 21 20 19 19 18 17 16 16 17 17 16 15 14 14 14 15 14 14 14 14 14 15 14 14 15 15 16 17 18 19 21 21 20 17 15 13 12 12 13 13 14 13 13 12 14 15 16 17 16 16 16 15 15 15
24 21 18 16 13 12 14 14 11 12 15 16 17 20 22 23 24 25 25 24 26 27 28 28 28 28 27 25 23 21 21 22 21 20 19 18 16 15 15 15 15 15 14 14 13 14 14 14 15 15 15 15 16 15 15 16 16 18 19 18 18 20 21 21 21 18 16 14 12 12 13 15 15 14 14 14 15 16 17 17 17 17 17 17 17
24 23 21 19 17 14 14 14 12 13 14 15 18 21 23 25 26 27 26 25 26 28 28 28 28 28 26 24 23 21 22 22 21 19 18 18 16 15 15 15 15 15 14 13 13 13 14 15 15 16 15 15 15 15 15 15 17 19 20 18 18 19 21 22 22 21 19 16 14 13 13 14 15 15 14 14 14 15 16 17 18 18 18 19 19
24 23 22 22 20 17 15 14 13 13 14 16 19 22 23 24 26 27 27 26 26 27 28 28 28 27 25 24 23 21 22 22 21 19 18 17 17 16 16 16 16 15 14 13 13 12 13 14 14 14 14 13 14 15 16 15 16 18 19 18 18 18 20 21 21 20 19 17 14 13 12 13 14 14 13 13 14 15 15 16 18 19 18 19 20
25 24 23 22 21 18 16 14 14 14 15 17 19 21 23 25 26 27 28 27 26 27 29 28 28 27 25 24 23 22 23 23 20 19 18 17 17 16 16 16 16 15 13 12 13 12 12 13 13 14 14 14 15 16 16 15 16 18 18 18 18 17 17 18 17 17 17 15 13 11 10 10 12 13 13 13 13 13 11 12 14 16 16 18 19
27 26 25 24 22 19 17 15 14 15 17 18 19 20 24 27 27 27 29 29 28 29 30 28 26 27 26 24 23 22 22 22 20 19 18 17 17 17 18 18 17 15 13 12 12 13 13 12 13 16 17 17 17 17 15 14 15 17 17 16 15 15 15 14 13 13 14 14 12 9 8 8 9 10 11 11 11 11 11 11 12 12 12 14 16
27 27 27 27 24 21 20 17 15 15 17 19 20 21 25 27 27 28 29 29 27 28 29 27 25 26 27 25 23 22 21 21 20 19 17 16 15 16 18 18 18 15 13 11 12 13 13 14 15 18 18 18 17 16 13 12 13 13 12 11 10 10 11 12 12 11 11 11 9 7 6 6 6 6 6 6 7 7 7 6 6 6 7 8 11
26 27 28 29 27 24 22 20 18 15 17 19 20 21 25 27 27 27 28 27 25 26 28 27 25 26 27 25 23 22 21 20 20 19 18 15 13 14 15 16 16 15 13 12 12 14 15 16 17 17 15 15 15 14 13 14 14 15 14 14 12 10 8 9 10 11 11 11 11 9 9 9 8 7 6 5 4 3 3 3 4 5 5 6 10
27 27 29 30 29 27 25 22 19 16 15 19 20 20 24 27 26 26 27 26 26 27 27 25 24 26 25 24 23 23 21 20 20 20 18 16 14 13 13 14 15 15 14 13 13 15 16 17 17 16 16 18 19 19 20 20 19 18 18 17 16 15 14 12 12 11 11 12 13 12 10 9 8 6 4 3 2 3 4 6 6 7 7 8 10
29 29 30 31 30 29 26 23 20 16 12 14 17 19 22 24 22 24 26 25 26 27 27 25 24 24 23 23 23 23 22 21 22 21 18 16 16 14 13 14 16 17 17 16 16 16 17 19 21 22 23 24 24 23 22 21 20 19 18 18 17 16 15 14 13 11 10 8 8 9 8 7 5 3 1 1 2 4 5 6 6 7 8 9 10
31 31 31 31 31 29 27 24 20 17 13 7 7 9 14 16 17 20 22 22 23 24 25 24 23 22 22 22 22 22 22 21 21 20 18 17 16 15 15 17 19 21 20 19 19 19 20 22 24 24 23 22 21 19 17 17 18 18 18 18 17 15 14 13 11 10 8 7 6 6 7 5 3 2 0 1 2 3 4 5 5 6 7 8 9
31 31 31 31 31 29 27 25 22 18 15 11 7 5 5 9 14 17 19 19 18 16 17 20 20 19 20 20 20 20 20 20 19 18 17 17 16 17 18 20 22 23 22 21 21 22 22 23 24 22 20 19 18 16 15 15 15 16 17 17 16 14 13 12 11 9 7 6 5 5 4 4 3 2 1 1 2 2 2 3 4 5 5 7 7
30 30 29 30 30 29 27 26 24 20 17 16 15 13 11 10 12 15 18 18 15 12 13 14 16 17 17 16 15 16 16 16 17 17 17 17 17 19 21 23 24 24 23 22 22 22 22 22 22 22 21 19 18 16 15 14 14 15 16 16 15 13 12 11 9 7 6 5 4 3 3 3 3 3 3 2 2 2 1 1 2 3 4 4 4
28 28 28 28 29 28 27 26 25 22 19 18 18 17 15 15 14 16 19 19 17 17 16 16 16 16 17 15 13 14 14 15 16 18 18 18 18 20 23 25 25 25 24 23 22 22 22 21 21 21 21 19 17 16 13 12 13 14 15 15 14 12 11 10 8 7 6 5 5 4 4 5 5 5 5 5 5 4 4 5 5 6 6 5 3
26 26 26 27 28 27 26 26 25 23 21 18 18 19 19 19 19 20 22 23 23 22 20 21 21 19 19 18 15 15 16 16 16 18 20 20 20 22 24 26 26 27 26 25 24 22 21 20 19 18 18 17 15 14 12 11 11 12 12 12 13 12 10 8 7 6 6 6 7 7 7 8 7 7 7 7 7 7 8 8 8 7 7 7 4
24 25 26 27 27 27 26 25 24 23 21 19 19 20 21 22 23 25 26 27 27 26 25 25 25 25 23 21 18 17 17 16 15 16 18 20 21 23 25 27 28 28 27 26 24 22 19 18 17 15 14 13 11 11 11 10 9 9 8 8 10 10 9 8 7 7 8 9 10 10 10 9 8 8 9 9 9 10 10 10 10 8 8 8 7
25 26 26 26 26 26 26 24 23 22 20 20 21 21 22 22 24 27 28 28 29 28 28 27 26 27 26 24 22 20 19 17 16 15 17 19 21 23 25 27 29 29 27 24 22 19 18 16 15 14 12 10 8 7 7 7 7 7 6 6 6 7 8 8 9 9 9 10 10 10 10 9 8 8 9 9 9 10 10 10 9 8 7 7 7
27 27 27 26 26 26 25 24 22 21 20 20 22 22 23 22 24 26 28 28 28 28 29 28 27 27 27 25 24 23 21 20 18 17 17 19 20 21 22 23 22 20 20 19 16 15 16 15 13 12 11 9 7 6 4 3 2 2 3 4 5 6 6 7 8 9 10 11 11 12 11 10 10 9 9 9 9 9 8 8 8 7 7 7 6
29 29 29 28 27 26 25 24 23 22 21 21 22 22 23 23 24 25 26 27 28 28 28 27 26 26 25 24 23 22 21 21 20 18 16 16 16 16 15 14 12 10 11 13 13 13 14 13 12 11 9 8 7 6 4 3 2 1 1 2 4 5 6 8 10 12 13 13 13 12 12 10 9 8 8 7 7 6 6 6 6 6 6 6 6
31 30 30 29 29 27 25 23 22 22 22 22 22 23 23 23 24 24 24 26 28 28 27 26 26 25 25 23 22 21 19 19 19 18 16 15 14 13 12 11 9 8 9 11 12 12 11 11 10 8 7 6 6 5 4 3 3 4 5 6 8 10 12 14 15 15 14 13 12 11 10 8 7 6 6 5 4 3 3 3 4 4 5 5 5
32 32 31 29 29 28 26 24 22 22 22 22 23 23 22 23 23 24 25 27 28 27 26 26 27 26 24 22 21 20 18 17 17 16 15 13 13 12 11 10 10 8 9 11 10 9 9 9 9 9 8 8 8 9 9 10 10 10 11 12 13 14 15 16 15 14 14 13 11 10 8 7 5 5 4 4 3 2 3 3 3 3 4 4 5
32 32 32 30 28 28 28 27 24 22 21 21 22 22 22 21 22 22 23 25 26 25 24 24 24 23 22 20 19 18 17 16 15 14 12 10 10 9 9 9 9 9 9 10 9 8 9 9 10 12 12 12 12 14 15 16 15 16 16 17 17 16 15 14 13 13 13 12 10 9 8 6 5 5 4 4 4 5 7 7 6 5 4 4 4
28 30 30 30 29 28 28 28 27 26 23 21 20 20 20 20 20 20 19 19 20 21 21 20 20 20 19 18 17 16 16 15 13 11 9 7 7 7 8 8 8 8 8 9 9 10 12 13 15 16 17 17 18 19 20 20 20 20 19 17 16 15 14 13 12 12 12 11 9 9 8 7 7 7 7 7 8 9 9 8 7 7 5 4 4
25 25 26 27 28 27 26 26 27 28 27 25 22 20 19 19 20 19 17 15 16 16 16 16 16 15 14 14 13 13 13 13 13 11 9 8 8 8 7 6 5 5 6 9 12 15 17 19 20 21 21 22 23 22 22 21 19 18 17 15 14 13 12 11 11 11 11 10 9 10 9 9 9 9 9 9 11 11 10 9 9 9 7 6 6
22 22 22 23 24 25 24 24 24 25 26 26 25 23 20 19 19 18 17 15 13 13 14 14 14 12 12 11 10 10 9 9 9 8 7 7 6 5 4 3 5 8 11 15 18 20 21 22 22 23 22 23 23 22 20 19 17 16 15 13 12 11 9 9 9 11 11 11 11 12 11 11 12 11 11 11 12 11 10 10 10 9 9 9 9
19 19 19 20 20 20 21 22 22 21 22 22 23 23 21 19 18 18 17 15 13 12 12 12 11 11 11 11 10 9 8 7 4 2 1 1 0 2 4 7 10 14 17 19 20 21 22 22 22 22 21 21 21 19 17 16 15 13 12 10 9 9 9 11 12 13 13 13 13 13 13 13 13 12 12 13 13 12 11 10 10 10 9 9 9
17 17 16 16 15 15 16 17 18 19 18 18 19 20 19 19 18 18 17 16 15 14 13 11 9 8 9 8 8 8 8 8 6 4 2 2 4 6 10 13 15 17 19 19 19 20 20 20 20 20 19 19 18 16 14 13 12 11 11 11 11 11 13 14 15 14 14 14 15 15 14 14 14 14 13 12 12 11 11 10 10 10 9 9 10
13 13 13 12 12 12 12 13 14 15 15 15 16 16 17 18 18 18 17 16 16 15 14 13 11 10 9 9 9 10 10 10 10 9 7 6 6 9 13 14 15 16 15 15 16 18 19 19 20 19 18 17 16 14 12 11 11 11 12 13 15 15 16 16 16 15 15 16 16 16 16 15 14 13 12 11 10 10 10 10 10 10 10 10 10
10 9 9 9 8 8 8 8 9 10 11 12 13 14 15 16 16 16 16 16 16 16 16 15 13 12 11 10 10 10 10 10 9 9 9 8 7 8 10 11 12 10 9 11 15 18 18 19 19 17 16 16 14 12 11 11 12 14 15 17 18 17 17 17 16 16 17 17 16 16 15 14 13 12 11 10 10 11 11 11 12 12 12 11 11
11 10 8 7 6 6 5 5 5 6 8 8 9 10 12 13 13 13 14 14 15 15 15 15 14 12 11 10 9 9 8 7 7 6 6 5 5 4 3 5 6 5 5 9 15 17 18 18 18 16 14 13 12 11 12 14 15 17 18 18 18 17 17 16 16 16 16 15 14 14 13 12 11 11 11 12 12 12 12 12 12 12 13 12 11
12 12 11 10 8 6 5 3 2 3 4 5 5 5 7 8 9 9 10 12 13 13 13 13 12 11 10 9 8 7 6 5 4 4 3 3 4 3 2 2 5 7 9 12 15 17 17 17 16 14 13 12 12 13 15 17 17 17 18 18 17 16 15 15 15 16 15 14 13 12 10 10 10 10 11 12 12 12 12 12 11 11 12 11 10
12 12 12 12 11 9 7 5 3 2 1 1 2 2 3 4 5 6 7 8 9 10 10 10 10 9 9 8 8 7 6 5 4 3 1 1 2 3 0 5 10 12 14 15 16 16 15 14 14 13 13 13 15 16 17 18 18 17 17 16 15 15 14 14 14 14 13 12 12 11 10 10 10 10 10 11 11 11 11 11 10 10 9 9 8
11 11 11 11 12 12 11 10 8 5 0 2 3 4 4 4 5 5 5 6 6 7 7 7 7 7 7 8 8 9 8 7 5 3 3 2 2 1 5 9 12 14 15 15 14 14 14 14 13 14 15 16 17 17 17 17 17 16 16 15 14 14 13 13 13 13 12 11 11 11 11 12 11 10 10 10 10 11 10 9 9 9 8 8 8
10 10 10 10 10 10 10 10 10 7 2 2 5 6 6 6 6 5 4 4 4 4 5 5 5 6 7 7 7 8 9 7 5 5 6 6 6 7 9 10 12 13 14 13 12 13 14 15 15 16 17 17 18 17 17 16 16 15 15 14 14 13 13 13 13 12 12 12 12 12 12 12 12 11 10 9 10 10 10 9 9 9 9 9 9
9 10 10 11 10 9 8 9 9 8 5 1 4 7 7 7 7 6 4 3 2 2 2 3 5 5 6 7 6 7 8 8 7 6 7 8 8 8 9 10 11 12 13 12 12 13 15 16 16 17 17 17 16 16 16 15 14 14 14 14 14 13 13 13 13 12 12 12 12 12 12 11 11 10 10 9 9 9 9 9 9 10 10 11 11
8 9 10 11 12 10 7 6 7 8 7 3 3 6 8 8 7 6 4 3 2 2 2 2 3 4 5 6 6 6 7 9 7 6 5 6 7 6 7 9 11 11 12 12 13 13 15 16 16 16 16 15 15 15 14 14 13 13 13 13 13 13 13 12 12 11 11 10 10 10 10 10 10 9 8 8 7 7 7 7 7 8 9 10 10
6 8 10 11 13 12 9 5 5 7 8 7 5 5 7 9 9 7 5 5 4 3 3 2 2 3 4 4 5 5 6 7 7 5 4 5 6 7 8 9 10 10 11 12 12 13 14 15 15 15 15 15 14 14 13 13 12 12 12 11 11 11 11 10 10 9 9 9 8 8 8 8 8 8 7 7 6 6 5 5 5 6 7 8 9
6 7 10 11 12 13 10 6 4 5 7 8 8 8 7 7 9 8 6 4 3 3 4 4 3 3 2 2 3 3 4 5 6 6 6 6 7 8 9 8 9 9 10 11 11 12 13 14 14 14 14 13 12 12 11 11 10 10 10 10 10 9 9 9 9 8 8 7 7 7 7 7 7 7 7 7 6 6 5 4 4 5 6 7 8
6 7 10 11 12 13 11 7 5 4 6 7 9 10 10 7 6 7 5 4 4 5 6 5 4 3 2 1 1 2 3 4 4 4 5 6 7 8 8 7 7 8 9 9 10 10 11 12 12 12 11 11 10 10 9 9 8 8 8 8 8 8 8 8 8 8 8 7 7 6 6 6 6 6 7 7 7 7 6 4 3 3 5 7 8
7 8 9 10 11 12 10 8 5 4 4 6 8 9 10 9 6 5 5 4 5 6 7 6 6 5 4 2 1 2 3 3 3 2 3 4 5 6 6 7 7 7 7 8 8 8 8 9 10 10 10 10 9 8 8 7 7 7 6 6 6 7 7 7 8 8 7 7 6 6 6 6 6 6 6 6 7 6 6 5 4 4 5 7 8
8 8 9 9 10 11 10 8 6 4 3 5 7 7 8 8 7 5 5 5 5 6 7 8 7 7 6 4 2 2 2 3 2 1 0 2 3 4 5 6 8 8 8 8 7 7 6 6 7 7 8 8 7 6 6 6 6 6 6 5 5 6 6 6 6 6 6 6 5 5 6 6 6 7 7 6 6 5 5 4 4 5 5 6 7
8 8 8 8 9 10 10 9 7 6 5 5 6 7 6 6 6 5 5 6 7 7 7 8 9 9 8 7 6 4 3 2 2 1 1 2 4 5 6 7 7 8 9 9 9 8 6 4 4 5 6 6 6 5 5 5 5 5 5 5 5 5 5 5 4 4 4 4 4 5 5 6 7 8 8 7 6 5 5 5 5 5 5 5 5
9 9 8 8 9 10 11 10 9 8 6 6 7 7 6 5 5 5 5 7 8 8 7 8 8 9 9 9 9 7 5 4 3 2 0 2 3 5 6 6 6 7 8 8 8 7 6 4 4 5 5 5 5 4 4 4 4 4 4 4 4 4 4 4 3 3 3 3 4 5 6 7 9 10 9 8 6 5 5 6 6 5 4 4 3
9 9 9 9 10 11 11 11 11 10 9 7 7 8 8 7 5 5 5 6 8 9 8 7 6 6 7 8 9 9 8 6 5 3 2 1 2 3 4 5 5 5 5 6 6 6 5 5 5 5 5 4 4 3 4 4 4 4 4 4 4 3 3 2 1 1 2 4 5 6 7 9 10 11 9 7 5 4 5 5 6 5 4 3 2
9 10 10 11 12 12 11 10 11 12 12 10 8 8 8 8 7 6 5 6 7 8 8 8 7 7 7 7 8 7 8 8 8 6 4 3 2 2 2 3 4 5 5 5 6 6 5 5 5 5 4 3 3 3 4 4 4 4 4 4 3 3 2 1 1 2 3 5 6 7 9 10 11 10 9 6 4 5 6 6 5 5 4 2 2
9 10 11 12 13 13 11 9 9 12 13 14 12 9 7 6 6 6 6 6 6 7 8 8 8 8 8 9 9 7 6 8 9 8 6 5 4 4 3 3 3 5 5 6 6 6 5 5 4 4 4 4 4 4 5 6 5 5 4 3 2 1 1 2 3 4 5 6 7 8 9 10 10 9 7 5 5 5 6 4 4 4 5 3 0
8 9 10 12 13 14 12 10 9 10 12 13 14 13 12 10 9 8 7 7 8 8 8 8 8 8 8 9 11 10 8 7 9 9 8 6 5 5 5 4 4 4 6 6 6 6 5 5 5 5 5 5 6 6 6 6 5 4 2 1 1 2 3 3 4 5 6 6 7 7 8 9 9 8 6 5 6 6 4 2 2 4 4 4 2
Wind_Direction
345 341 334 315 283 263 262 266 262 255 255 256 254 251 242 235 235 235 232 228 222 219 213 206 206 210 210 209 212 214 217 217 218 219 219 217 217 217 218 218 217 215 212 210 210 213 215 216 216 217 217 216 213 209 209 209 209 209 206 203 204 208 204 190 173 168 194 207 212 213 215 215 218 218 213 209 211 216 218 217 217 219 217 217 219
350 346 343 336 304 273 262 263 265 261 254 251 250 248 242 239 237 233 229 224 222 219 214 209 209 211 211 211 212 214 217 217 215 217 217 216 216 216 218 217 215 213 211 211 213 213 214 214 215 215 213 212 210 204 202 203 206 208 207 206 208 209 211 204 190 179 187 202 210 213 214 218 220 218 215 213 213 219 224 224 225 225 223 224 227
356 351 345 333 307 297 283 268 268 269 262 254 247 242 239 236 236 235 229 223 221 219 217 214 211 211 212 212 212 214 216 215 213 214 216 216 215 215 216 216 214 211 211 213 215 213 211 211 212 213 211 209 206 202 202 204 207 209 209 210 212 213 214 211 204 196 190 195 205 212 213 218 223 222 219 218 219 224 229 232 235 235 233 232 234
359 357 350 332 314 316 301 269 256 251 252 248 240 236 237 234 232 231 228 226 222 217 217 216 213 212 213 212 211 212 213 212 211 212 213 214 215 215 216 216 215 214 213 214 215 213 209 208 210 211 208 205 200 198 201 203 206 210 211 212 215 217 217 216 215 213 205 199 205 213 215 219 226 229 225 222 224 228 233 237 240 242 243 243 244
1 2 355 338 320 309 297 285 273 256 252 248 238 231 232 232 229 223 222 226 223 215 213 215 214 212 212 211 210 209 208 209 210 211 211 211 213 216 217 215 214 215 217 218 217 214 209 207 209 208 205 202 197 196 197 196 199 208 212 212 215 219 220 221 222 222 222 217 212 215 219 221 225 231 231 227 228 231 236 240 243 247 250 250 252
3 2 356 346 329 310 305 308 303 280 266 256 244 233 230 232 229 222 219 222 222 216 212 213 213 213 212 212 211 209 207 209 211 210 209 208 210 214 215 213 212 214 216 218 219 216 210 209 208 207 205 202 199 198 196 194 196 204 210 213 217 221 224 226 227 227 230 231 224 223 226 224 223 228 232 232 233 236 240 245 249 251 254 256 257
5 2 357 352 343 328 319 318 310 294 281 265 250 237 231 233 231 225 220 219 220 219 217 215 213 214 214 212 212 212 210 211 212 210 208 207 207 208 208 209 210 212 213 217 219 217 213 211 209 208 207 205 206 207 202 199 201 205 209 214 219 224 229 230 230 229 229 230 229 230 230 227 222 224 230 233 236 240 245 250 255 256 258 261 264
5 5 1 356 349 338 324 314 308 301 288 272 258 245 237 235 232 228 224 219 220 221 217 214 214 214 213 212 213 214 213 213 212 209 206 205 204 205 206 208 209 209 211 214 217 219 218 213 211 209 206 202 205 210 207 204 204 204 206 212 218 224 229 229 228 228 227 224 226 229 228 223 219 218 223 229 234 240 246 251 259 264 267 269 271
6 6 4 359 353 344 328 312 304 299 288 276 268 254 241 234 228 226 224 220 220 220 214 210 211 211 210 211 214 213 212 214 213 209 204 202 202 205 207 209 211 210 209 209 212 215 215 210 207 206 202 197 200 206 209 209 208 206 205 211 218 224 226 225 223 219 216 213 215 218 216 214 213 212 215 223 232 243 253 261 267 274 280 281 280
10 9 6 2 357 348 335 319 305 297 287 277 270 258 243 233 224 219 218 216 216 218 213 207 208 210 210 211 213 211 213 217 215 208 203 201 203 208 211 213 214 213 208 203 202 206 207 206 202 198 195 194 199 205 210 210 210 211 212 213 216 216 211 207 204 200 199 199 203 208 208 211 219 219 220 230 241 251 263 270 273 279 285 287 291
12 11 9 7 3 354 341 327 311 297 285 276 267 255 245 235 224 215 211 209 210 213 211 207 206 209 211 211 212 213 215 215 212 206 201 196 196 201 204 206 209 209 208 202 197 199 202 201 196 191 190 193 199 205 207 202 196 195 192 184 185 192 192 188 184 187 191 190 190 194 190 185 195 202 205 221 232 243 257 265 268 275 280 288 298
13 11 12 12 9 2 352 339 326 306 285 274 265 254 243 234 223 212 206 204 205 207 208 206 205 207 210 210 211 211 210 208 205 200 194 185 182 186 188 193 198 199 199 197 195 196 197 194 189 187 187 187 185 179 170 163 158 153 146 139 139 142 149 159 164 169 172 164 150 143 140 137 140 143 147 164 185 213 265 299 306 302 298 292 295
16 13 13 14 12 8 2 352 343 326 295 275 266 252 237 227 217 208 205 204 203 203 204 204 204 206 208 208 207 205 203 200 196 194 190 184 184 185 185 189 193 189 185 184 185 187 186 181 174 166 159 155 152 148 144 141 138 137 133 129 124 121 119 122 125 132 142 142 136 132 132 134 137 140 146 165 221 273 300 310 311 307 303 296 293
19 15 14 14 14 13 9 3 355 344 322 284 264 245 228 219 209 202 203 201 198 199 201 201 201 202 203 202 201 200 200 196 191 190 191 190 192 193 191 188 183 175 172 171 171 171 168 163 156 149 146 144 142 141 140 138 136 134 131 126 122 120 119 117 116 118 123 126 127 128 128 128 129 131 137 298 307 310 310 307 303 301 297 293 295
23 19 15 14 15 16 14 11 5 359 355 326 267 231 213 205 194 191 193 191 190 192 193 194 194 194 193 194 195 196 197 195 191 191 194 195 194 192 186 179 172 166 163 164 163 159 156 153 150 147 145 143 141 141 142 143 142 136 129 125 123 122 121 118 116 117 116 115 117 122 125 125 126 133 221 297 297 299 296 292 289 287 286 286 291
24 20 17 15 17 19 18 18 18 17 19 26 42 73 127 161 170 173 174 175 177 176 175 179 182 182 183 186 189 192 194 194 192 191 192 192 188 181 174 168 164 160 158 159 159 157 156 155 153 151 150 147 145 148 152 153 148 138 129 125 123 121 117 112 111 109 105 103 102 106 117 122 127 139 165 240 266 280 280 274 271 271 277 284 289
23 21 19 17 19 22 25 26 28 30 35 42 50 60 74 98 127 146 149 149 146 136 137 150 160 166 170 172 177 182 183 185 184 180 182 186 182 172 166 161 157 155 153 155 156 154 154 156 156 155 153 151 149 149 153 156 151 144 137 131 127 124 118 115 117 113 106 102 96 92 93 93 95 97 92 80 49 25 11 348 329 322 327 322 311
21 22 21 21 23 26 30 33 35 37 43 49 55 64 76 86 100 119 126 122 114 111 113 114 120 139 150 150 153 159 157 160 165 165 169 178 179 171 164 157 151 149 147 146 147 147 146 148 151 152 149 147 147 148 152 157 152 144 140 133 128 124 122 124 129 126 119 112 104 98 93 93 95 87 75 68 59 52 47 40 29 14 12 17 359
21 24 26 29 31 31 33 37 40 42 47 55 62 70 78 87 96 104 109 107 103 101 103 98 91 98 116 125 129 132 134 140 153 160 163 170 173 169 163 156 147 143 142 139 137 137 137 136 139 141 139 138 139 138 140 144 140 135 135 135 130 127 128 134 136 130 127 122 118 118 114 107 101 90 82 78 73 70 64 57 52 41 35 39 35
26 31 34 37 39 37 37 39 42 45 50 59 70 77 80 84 93 98 99 101 102 100 99 96 85 81 92 104 108 110 115 124 139 153 160 164 165 163 161 156 147 142 140 138 135 133 132 132 131 132 133 135 137 135 133 134 133 131 136 141 135 132 136 138 133 128 127 125 124 123 118 112 104 94 88 82 73 69 64 58 54 51 50 48 44
34 37 38 40 41 42 43 43 44 47 53 62 73 82 83 81 87 94 95 95 96 94 95 96 88 80 82 88 89 90 96 106 118 133 145 151 155 155 153 149 144 141 138 136 135 136 138 140 139 139 142 145 150 147 133 124 122 122 122 120 119 127 133 131 125 125 127 129 127 123 118 112 104 92 82 72 64 61 57 53 52 53 56 50 41
39 40 41 41 41 43 47 49 50 51 55 63 70 79 85 85 86 91 93 93 91 87 88 91 88 81 79 80 79 79 83 90 99 111 123 131 137 140 138 136 137 139 137 136 139 143 147 150 151 152 159 168 175 178 160 136 118 86 71 75 96 116 125 125 124 128 130 130 126 119 112 103 94 83 72 60 56 54 52 54 53 51 51 47 37
41 43 44 44 43 44 46 51 56 57 59 63 66 71 78 83 84 86 89 89 87 83 82 85 84 80 77 75 73 73 74 78 84 91 101 114 122 127 129 131 137 145 145 142 145 149 152 154 154 156 164 172 180 188 192 202 234 285 10 62 94 110 118 122 126 127 126 124 118 110 101 92 83 74 62 52 49 48 50 51 46 41 42 44 39
41 42 44 45 46 46 46 49 56 60 63 65 67 66 69 73 78 82 84 83 81 79 78 79 77 73 71 69 68 67 67 68 71 74 79 89 100 106 111 117 124 135 140 138 139 144 149 150 149 151 154 155 159 160 151 141 137 127 119 116 117 121 125 127 127 125 121 116 109 100 92 84 75 66 58 50 40 38 43 43 41 42 45 49 50
41 41 43 44 47 49 49 50 53 58 63 67 68 67 67 68 70 76 80 81 80 78 76 76 75 72 70 67 65 62 61 61 62 62 62 67 77 86 94 99 101 110 122 125 126 129 131 133 136 139 138 135 135 130 122 119 120 121 122 123 124 126 127 126 124 121 113 104 97 92 85 78 69 59 52 42 30 43 70 75 73 70 65 62 58
41 41 41 41 45 50 53 53 54 57 62 66 68 68 68 69 70 74 78 80 79 77 74 73 73 72 71 69 65 61 59 58 59 59 57 60 69 74 79 84 87 91 100 104 106 109 113 121 129 132 130 128 127 123 118 118 120 120 120 121 121 120 120 118 116 111 102 95 91 88 84 81 78 72 68 68 76 81 80 79 81 85 81 71 59
42 41 40 39 40 45 50 53 55 58 60 63 66 66 64 65 67 69 71 73 74 73 71 70 69 68 65 61 55 49 46 45 47 51 52 59 72 74 73 76 77 76 84 95 107 117 125 129 130 129 128 125 123 120 119 119 118 117 115 115 113 109 106 103 100 95 90 88 88 91 94 96 93 87 82 81 81 75 70 68 71 70 71 76 77
42 43 42 40 39 41 45 50 54 57 58 59 60 58 54 55 58 59 60 64 71 75 75 73 70 66 64 61 52 44 40 34 30 31 31 34 40 43 46 59 73 91 114 127 133 134 134 133 129 126 125 122 120 118 118 116 113 110 107 104 101 97 94 90 86 83 84 89 95 100 102 99 91 84 80 77 73 67 61 59 61 59 59 66 70
38 42 43 42 40 41 44 48 52 56 59 60 60 58 55 54 54 54 52 54 64 75 81 82 78 69 61 58 53 49 49 41 29 26 24 25 29 32 44 84 124 140 142 142 141 138 135 131 127 124 123 120 117 114 112 110 107 103 99 95 91 89 88 85 84 86 92 99 103 100 97 91 85 82 79 74 69 64 59 56 55 55 54 57 59
34 37 40 42 41 41 44 47 51 54 59 63 65 64 62 59 57 56 53 51 53 58 67 77 81 74 63 56 49 47 50 50 45 29 2 359 63 127 133 138 143 144 143 143 142 138 133 127 122 121 120 117 113 109 107 106 103 98 93 90 87 89 90 89 89 93 98 100 97 94 91 88 84 79 74 70 66 63 60 57 57 59 60 61 63
33 35 36 39 41 40 42 48 52 54 57 61 66 69 69 67 64 62 60 59 58 57 59 63 68 68 68 72 74 70 65 64 67 76 126 170 172 157 146 144 145 143 144 146 142 135 130 124 119 117 116 113 108 106 103 101 99 97 97 96 92 93 94 91 89 92 95 94 92 90 87 85 81 76 72 70 69 69 69 68 67 65 62 62 62
31 34 35 37 38 40 41 45 50 55 57 59 62 66 69 69 67 65 64 64 66 66 67 67 66 67 71 80 87 86 79 74 72 74 83 102 129 141 142 143 143 143 150 153 141 130 128 124 118 116 115 111 107 106 105 104 104 106 107 103 98 95 93 91 91 93 93 92 91 89 86 83 81 79 77 77 79 81 80 77 70 62 59 64 66
28 28 31 34 35 37 42 44 46 51 58 61 62 63 65 68 70 71 71 70 70 70 69 69 70 72 74 75 78 80 79 75 72 71 73 80 98 120 131 137 138 141 157 160 142 130 127 124 120 118 116 112 110 109 109 109 110 110 107 104 100 97 94 93 94 94 93 92 91 91 90 88 85 84 83 80 81 83 81 76 69 64 65 68 67
32 24 23 25 23 24 35 50 56 54 56 62 66 69 73 75 76 77 77 74 73 71 69 67 67 69 71 70 68 68 70 70 68 64 61 63 66 77 113 139 137 136 158 157 142 133 129 125 120 118 115 111 112 113 112 113 113 111 108 104 101 99 99 98 96 93 93 94 95 96 98 95 89 85 81 77 78 80 79 74 69 67 67 65 62
36 29 27 27 26 28 35 50 72 76 69 68 68 75 84 84 80 78 78 78 77 75 71 68 64 61 60 60 56 50 46 44 45 46 51 65 59 30 352 170 144 134 138 141 137 133 130 125 119 117 114 112 115 116 115 114 112 111 109 107 106 106 105 101 97 96 97 97 97 97 99 95 87 81 78 77 79 80 77 69 65 65 65 62 58
37 35 37 35 34 38 41 46 59 87 145 129 114 119 117 102 91 87 84 83 82 80 75 69 62 53 47 44 37 30 24 17 9 4 2 3 1 351 354 147 135 129 129 131 130 129 126 120 116 116 115 116 118 118 116 114 113 112 113 112 111 110 107 103 103 104 101 96 93 94 93 88 83 81 82 83 81 79 74 68 63 63 62 55 48
40 42 43 39 35 35 35 38 46 52 76 203 195 197 186 156 134 120 104 91 83 76 68 60 51 41 35 34 29 22 18 14 7 9 21 19 10 82 134 136 131 126 126 126 126 125 120 116 117 118 119 120 121 120 118 117 116 115 115 113 111 110 109 109 112 109 99 90 89 90 88 82 78 80 87 89 81 73 69 66 61 60 57 51 45
39 42 42 37 32 32 32 30 33 36 34 211 210 211 201 178 161 149 132 114 93 74 56 37 22 17 19 24 24 18 14 14 23 47 65 77 91 107 120 126 126 125 123 121 122 122 120 119 121 122 121 122 122 121 120 118 116 116 116 115 114 113 112 113 113 107 96 89 88 89 87 81 76 76 81 82 75 67 65 63 60 59 57 50 43
31 34 34 29 26 29 34 33 30 28 22 294 225 224 217 199 183 176 172 164 130 81 41 9 357 356 2 7 8 5 10 22 43 67 80 88 95 106 118 122 122 122 122 121 122 123 123 124 126 125 124 123 122 121 121 119 119 120 121 120 118 115 113 113 112 105 95 89 86 85 83 79 76 75 75 74 72 68 67 66 63 60 56 48 42
17 20 19 20 20 20 25 33 32 26 20 1 273 245 236 222 206 198 206 220 241 276 296 322 337 339 346 355 351 349 7 29 49 71 84 86 91 104 121 125 122 121 122 123 125 126 127 128 128 125 124 123 121 121 121 122 122 123 124 123 119 115 111 109 107 102 96 91 87 84 81 76 75 75 74 75 75 72 72 71 65 59 53 45 39
4 12 11 13 15 13 12 19 25 22 19 10 346 298 262 241 225 219 233 248 261 275 267 254 285 309 328 350 347 340 360 27 47 65 76 83 95 107 117 122 123 121 121 122 125 127 128 127 126 124 122 121 121 121 121 121 121 121 120 117 114 110 107 106 102 98 97 95 89 85 80 74 72 72 70 70 67 62 63 63 54 48 44 36 31
360 8 9 11 11 9 12 25 32 21 17 13 6 353 321 274 240 228 239 254 246 224 212 210 229 266 306 352 355 339 349 16 45 66 76 89 106 117 120 121 122 121 118 119 121 124 125 125 124 124 123 121 120 120 118 115 112 111 110 109 108 106 104 104 101 98 96 93 88 84 79 71 66 63 61 59 54 47 42 37 33 35 34 28 27
19 15 13 11 6 3 10 28 42 35 22 14 11 10 358 330 271 238 237 247 228 212 210 217 230 244 256 310 342 332 339 360 32 61 76 88 105 122 132 134 130 126 122 120 118 120 123 126 127 127 125 122 119 116 113 106 98 96 100 104 106 105 102 101 100 98 94 91 88 84 78 68 59 53 50 48 44 38 32 25 22 24 23 24 27
29 21 14 9 3 0 5 17 28 34 25 11 9 12 9 354 317 263 243 241 237 232 231 235 242 251 257 263 303 330 334 348 8 36 69 88 101 118 139 152 154 149 142 133 125 121 121 126 129 129 125 122 118 114 110 103 94 95 102 110 115 115 109 102 98 94 92 90 89 82 73 63 53 46 41 37 33 31 28 25 22 16 13 18 21
26 23 17 11 5 3 3 5 6 6 359 355 358 4 8 360 337 297 260 249 253 257 253 250 254 262 265 262 262 294 322 337 353 5 95 135 130 130 140 154 166 171 170 162 154 148 139 130 131 132 130 126 122 116 111 105 103 110 117 122 124 124 117 108 103 97 91 85 80 71 63 52 41 31 22 15 11 8 6 7 5 1 0 7 12
28 26 21 12 4 1 1 1 358 351 338 330 332 339 351 356 344 317 277 256 258 266 267 264 265 270 272 269 263 263 282 311 332 345 176 175 170 161 154 153 161 173 179 179 176 176 174 153 135 134 134 131 129 125 120 116 119 129 136 136 132 128 122 117 113 103 89 74 56 44 36 25 15 7 359 352 346 340 340 343 342 342 346 352 358
22 24 24 17 9 3 360 357 355 350 341 325 314 313 318 326 327 319 292 266 261 265 272 276 275 274 276 278 273 266 266 281 304 318 234 173 176 174 170 165 164 170 176 177 177 179 177 160 140 135 134 134 134 134 137 141 143 148 151 144 136 130 128 125 117 98 71 41 20 13 7 1 357 353 347 342 335 329 330 334 335 332 328 320 325
18 27 29 22 13 6 358 352 350 348 341 329 312 301 298 302 307 307 294 278 270 269 274 285 287 277 276 284 283 272 262 262 274 291 295 224 178 179 182 181 177 176 176 174 171 168 160 152 146 142 141 145 148 151 161 169 166 159 154 148 146 148 147 139 116 50 17 5 2 2 357 353 351 350 347 346 345 341 340 342 343 341 332 303 284
19 27 27 21 15 8 1 360 6 6 360 350 332 307 289 284 288 294 294 287 278 272 274 283 290 284 282 294 298 282 261 255 260 268 273 263 226 204 206 203 191 182 174 168 166 163 158 158 163 163 164 169 173 167 164 163 155 147 146 149 153 159 160 138 13 358 358 356 356 354 350 348 349 350 351 356 1 354 347 348 352 356 353 328 266
18 24 24 22 19 15 8 6 12 16 14 11 8 0 342 316 301 295 289 280 275 273 273 278 282 280 283 296 306 299 271 257 258 260 261 259 244 229 231 232 209 191 179 172 170 173 177 183 190 192 189 183 171 156 150 145 141 139 139 140 138 127 11 353 346 345 345 344 343 342 341 342 346 348 349 355 1 355 351 359 15 20 20 23 47
17 20 19 16 15 13 11 5 357 354 357 1 4 8 11 11 5 351 325 292 275 271 272 272 269 264 269 290 304 302 285 263 255 251 248 250 250 242 237 235 222 204 193 186 183 186 194 197 193 185 174 167 158 150 145 142 138 136 133 119 5 336 332 331 330 329 329 327 328 328 332 338 343 343 343 350 357 354 354 24 62 45 37 47 74